,

(GMT )
Teruel

Tiempo Historia de LETL - Enero, 2018

Change the Weather History Date:

Viernes, Enero 12, 2018

  Actual Average Record
Temperature  
Temperatura media 36 ° F -  
Temperatura máxima 42 ° F - - ()
Temperatura mínima 30 ° F - - ()
Degree Days  
Grados día de calefacción 29    
Moisture  
Punto de rocío 30 ° F    
Average Humidity 78    
Maximum Humidity 93    
Minimum Humidity 57    
Precipitación  
Precipitación 0.00 pul - - ()
Presión al nivel del mar  
Presión al nivel del mar 30.20 pul    
Viento  
Velocidad del viento 9 mph ()    
Velocidad máxima del viento 15 mph    
Max Gust Speed -    
Visibilidad 6.2 Millas    
Eventos Lluvia    
T = Trace of Precipitation, MM = Missing Value Source: Averaged Metar Reports

Daily Weather History Graph

Daily Weather History Graph

Search for Another Location

Airport or City:

Trip Planner

Search our weather history database for the weather conditions in past years. The results will help you decide how hot, cold, wet, or windy it might be!

Date:

Astronomía

Jan. 12, 2018 Salida Puesta
Hora real 8:27 AM CET 5:59 PM CET
Crepúsculo civil 7:56 AM CET 6:29 PM CET
Crepúsculo náutico 7:23 AM CET 7:03 PM CET
Crepúsculo astronómico 6:50 AM CET 7:36 PM CET
Luna 4:19 AM CET (1/12) 2:49 PM CET (1/12)
Horas de luz 10h 32m
Horas de luz
9h 32m
Creciente menguante, 18% of the Moon is Illuminated
Ene 12
Creciente menguante
Ene 17
Nueva
Ene 24
Cuarto creciente
Ene 31
Luna llena
Feb 7
Cuarto menguante

Hourly Weather History & Observations

Hora (CET) Temp. Vientos helados Punto de rocío Humedad Presión Visibilidad Wind Dir Velocidad del viento Velocidad de ráfagas Precip Eventos Condiciones
12:00 AM 32.0 ° F 22.1 ° F 30.2 ° F 93% 30.18 pul - NO 13.8 mph - N/A   Despejado
12:30 AM 32.0 ° F 21.6 ° F 30.2 ° F 93% 30.18 pul 6.2 mi NNO 15.0 mph - N/A   Nubes dispersas
1:00 AM 33.8 ° F 25.3 ° F 30.2 ° F 87% 30.18 pul 6.2 mi NNO 11.5 mph - N/A   Nublado
1:30 AM 33.8 ° F 24.3 ° F 30.2 ° F 87% 30.18 pul 6.2 mi NNO 13.8 mph - N/A   Nublado
2:30 AM 33.8 ° F 27.0 ° F 30.2 ° F 87% 30.21 pul 6.2 mi NNE 8.1 mph - N/A   Muy nublado
3:00 AM 33.8 ° F 24.8 ° F 30.2 ° F 87% 30.18 pul 6.2 mi Norte 12.7 mph - N/A   Muy nublado
4:00 AM 33.8 ° F 25.8 ° F 30.2 ° F 87% 30.21 pul 6.2 mi NNO 10.4 mph - N/A   Nublado
4:30 AM 33.8 ° F 24.8 ° F 30.2 ° F 87% 30.21 pul 6.2 mi NNO 12.7 mph - N/A   Nublado
5:00 AM 33.8 ° F 25.3 ° F 30.2 ° F 87% 30.21 pul 6.2 mi NNO 11.5 mph - N/A   Nublado
5:30 AM 32.0 ° F 27.5 ° F 30.2 ° F 93% 30.21 pul 6.2 mi ONO 4.6 mph - N/A   Muy nublado
6:30 AM 33.8 ° F 28.6 ° F 30.2 ° F 87% 30.21 pul 6.2 mi Norte 5.8 mph - N/A   Muy nublado
8:30 AM 32.0 ° F 25.6 ° F 30.2 ° F 93% 30.24 pul 6.2 mi NO 6.9 mph - N/A   Nublado
9:00 AM 32.0 ° F 26.4 ° F 30.2 ° F 93% 30.24 pul 6.2 mi ONO 5.8 mph - N/A   Nublado
10:00 AM 33.8 ° F 29.6 ° F 32.0 ° F 93% 30.24 pul 6.2 mi NO 4.6 mph - N/A   Nublado
11:00 AM 35.6 ° F 30.7 ° F 30.2 ° F 81% 30.24 pul 6.2 mi NNO 5.8 mph - N/A   Nubes dispersas
11:30 AM 39.2 ° F 31.2 ° F 30.2 ° F 70% 30.24 pul 6.2 mi NNO 13.8 mph - N/A   Muy nublado
12:00 PM 39.2 ° F 32.0 ° F 30.2 ° F 70% 30.24 pul 6.2 mi NNO 11.5 mph - N/A   Nublado
12:30 PM 41.0 ° F 33.5 ° F 30.2 ° F 65% 30.24 pul 6.2 mi NNO 13.8 mph - N/A   Nublado
1:00 PM 41.0 ° F 33.9 ° F 28.4 ° F 61% 30.24 pul 6.2 mi NO 12.7 mph - N/A   Nubes dispersas
1:30 PM 41.0 ° F 33.9 ° F 28.4 ° F 61% 30.21 pul 6.2 mi NO 12.7 mph - N/A   Desconocido
2:30 PM 42.8 ° F 35.8 ° F 28.4 ° F 57% 30.18 pul 6.2 mi Norte 13.8 mph - N/A   Desconocido
3:00 PM 42.8 ° F 35.8 ° F 30.2 ° F 61% 30.18 pul 6.2 mi Norte 13.8 mph - N/A   Desconocido
3:30 PM 42.8 ° F 35.8 ° F 28.4 ° F 57% 30.18 pul 6.2 mi Norte 13.8 mph - N/A   Desconocido
4:00 PM 42.8 ° F 35.8 ° F 30.2 ° F 61% 30.18 pul 6.2 mi Norte 13.8 mph - N/A   Desconocido
4:30 PM 42.8 ° F 36.6 ° F 30.2 ° F 61% 30.18 pul 6.2 mi Norte 11.5 mph - N/A Lluvia Lluvia
5:00 PM 42.8 ° F 37.5 ° F 30.2 ° F 61% 30.18 pul 6.2 mi Norte 9.2 mph - N/A   Desconocido
5:30 PM 41.0 ° F 36.4 ° F 30.2 ° F 65% 30.18 pul 6.2 mi Norte 6.9 mph - N/A   Desconocido
6:00 PM 39.2 ° F 35.9 ° F 30.2 ° F 70% 30.18 pul 6.2 mi NNO 4.6 mph - N/A   Desconocido
6:30 PM 37.4 ° F 34.9 ° F 30.2 ° F 75% 30.18 pul 6.2 mi Norte 3.5 mph - N/A   Desconocido
7:00 PM 35.6 ° F 30.7 ° F 28.4 ° F 75% 30.18 pul - Norte 5.8 mph - N/A   Despejado
7:30 PM 35.6 ° F - 28.4 ° F 75% 30.21 pul - Variable 2.3 mph - N/A   Despejado
8:00 PM 35.6 ° F 32.8 ° F 28.4 ° F 75% 30.21 pul - OSO 3.5 mph - N/A   Despejado
8:30 PM 33.8 ° F 29.6 ° F 28.4 ° F 81% 30.21 pul - ONO 4.6 mph - N/A   Despejado
9:00 PM 32.0 ° F 27.5 ° F 26.6 ° F 80% 30.21 pul - NO 4.6 mph - N/A   Despejado
10:00 PM 30.2 ° F 24.3 ° F 26.6 ° F 86% 30.21 pul - Oeste 5.8 mph - N/A   Despejado
10:30 PM 32.0 ° F 25.6 ° F 28.4 ° F 87% 30.21 pul - OSO 6.9 mph - N/A   Despejado
11:30 PM 30.2 ° F - 26.6 ° F 86% 30.18 pul - Variable 1.2 mph - N/A   Despejado